SWA720 KRDU-KBWI

Flight info

Callsign SWA720
Flight time 0h 40m
Altitude 31000
Route BEXGO5 BOUSY THHMP RAVNN8
Aircraft B737/M-SDE2E3FGHIRWXY/LB1

Departure

Time 2026-05-05 22:46
Airport Raleigh-Durham International Airport (KRDU)

Arrival

Time 2026-05-05 23:26
Airport Baltimore/Washington International Thurgood Marshall Airport (KBWI)
Time Latitude Longitude Altitude Speed Heading
2026-05-05 22:25 35.87399 -78.78958 434 ft 0 kts 301°
2026-05-05 22:41 35.87399 -78.78959 434 ft 0 kts 294°
2026-05-05 22:41 35.87391 -78.78966 424 ft 2 kts 203°
2026-05-05 22:41 35.87376 -78.78953 424 ft 2 kts 136°
2026-05-05 22:42 35.87370 -78.78946 428 ft 0 kts 136°
2026-05-05 22:42 35.87362 -78.78936 429 ft 5 kts 136°
2026-05-05 22:42 35.87331 -78.78891 424 ft 9 kts 110°
2026-05-05 22:42 35.87359 -78.78821 422 ft 11 kts 45°
2026-05-05 22:43 35.87415 -78.78753 428 ft 12 kts 45°
2026-05-05 22:43 35.87485 -78.78665 433 ft 16 kts 45°
2026-05-05 22:43 35.87571 -78.78560 430 ft 18 kts 45°
2026-05-05 22:43 35.87667 -78.78441 427 ft 21 kts 45°
2026-05-05 22:44 35.87772 -78.78311 427 ft 21 kts 45°
2026-05-05 22:44 35.87871 -78.78188 424 ft 20 kts 45°
2026-05-05 22:44 35.87948 -78.78093 420 ft 13 kts 44°
2026-05-05 22:44 35.87969 -78.78050 429 ft 5 kts 89°
2026-05-05 22:45 35.87945 -78.77995 426 ft 13 kts 135°
2026-05-05 22:45 35.87883 -78.77989 426 ft 10 kts 225°
2026-05-05 22:45 35.87669 -78.78250 423 ft 86 kts 225°
2026-05-05 22:45 35.87053 -78.79006 477 ft 156 kts 221°
2026-05-05 22:46 35.86274 -78.80014 1318 ft 164 kts 222°
2026-05-05 22:46 35.85527 -78.81041 2315 ft 171 kts 224°
2026-05-05 22:46 35.84657 -78.82244 2724 ft 205 kts 225°
2026-05-05 22:46 35.83643 -78.83617 3326 ft 222 kts 224°
2026-05-05 22:47 35.82497 -78.85048 3915 ft 245 kts 225°
2026-05-05 22:47 35.81708 -78.86939 5026 ft 256 kts 255°
2026-05-05 22:47 35.81791 -78.89115 6366 ft 257 kts 283°
2026-05-05 22:47 35.82704 -78.91037 7489 ft 270 kts 306°
2026-05-05 22:48 35.84032 -78.92740 8414 ft 279 kts 310°
2026-05-05 22:48 35.85443 -78.94419 9410 ft 286 kts 315°
2026-05-05 22:48 35.87280 -78.95500 10298 ft 306 kts 346°
2026-05-05 22:48 35.89500 -78.95398 10711 ft 340 kts 12°
2026-05-05 22:49 35.91761 -78.94186 11103 ft 365 kts 30°
2026-05-05 22:49 35.93772 -78.92234 11720 ft 372 kts 44°
2026-05-05 22:49 35.95490 -78.89854 12052 ft 372 kts 51°
2026-05-05 22:49 35.97101 -78.87306 12784 ft 378 kts 52°
2026-05-05 22:50 35.98700 -78.84720 13749 ft 381 kts 51°
2026-05-05 22:50 36.00338 -78.82114 14546 ft 385 kts 51°
2026-05-05 22:50 36.02012 -78.79510 15361 ft 389 kts 50°
2026-05-05 22:50 36.03722 -78.76897 16190 ft 393 kts 49°
2026-05-05 22:51 36.05440 -78.74303 16982 ft 397 kts 49°
2026-05-05 22:51 36.07202 -78.71656 17786 ft 401 kts 49°
2026-05-05 22:51 36.09013 -78.68943 18548 ft 406 kts 49°
2026-05-05 22:51 36.10881 -78.66378 19201 ft 408 kts 40°
2026-05-05 22:52 36.13145 -78.64268 19844 ft 409 kts 27°
2026-05-05 22:52 36.15642 -78.62565 20532 ft 411 kts 25°
2026-05-05 22:52 36.18179 -78.60899 21191 ft 415 kts 24°
2026-05-05 22:52 36.20751 -78.59220 21836 ft 420 kts 25°
2026-05-05 22:53 36.23357 -78.57512 22402 ft 426 kts 25°
2026-05-05 22:53 36.25987 -78.55772 23018 ft 430 kts 25°
2026-05-05 22:53 36.28637 -78.54006 23657 ft 434 kts 25°
2026-05-05 22:53 36.31303 -78.52219 24208 ft 436 kts 25°
2026-05-05 22:54 36.33976 -78.50421 24804 ft 437 kts 24°
2026-05-05 22:54 36.36650 -78.48617 25397 ft 438 kts 24°
2026-05-05 22:54 36.39332 -78.46806 25951 ft 440 kts 24°
2026-05-05 22:54 36.42026 -78.44986 26497 ft 442 kts 24°
2026-05-05 22:55 36.43824 -78.43771 26864 ft 444 kts 24°
2026-05-05 22:55 36.46540 -78.41934 27302 ft 447 kts 23°
2026-05-05 22:55 36.50213 -78.39449 27974 ft 450 kts 23°
2026-05-05 22:55 36.52926 -78.37610 28509 ft 450 kts 23°
2026-05-05 22:56 36.55670 -78.35748 29173 ft 448 kts 22°
2026-05-05 22:56 36.58385 -78.33901 29979 ft 442 kts 22°
2026-05-05 22:56 36.61063 -78.32077 30671 ft 438 kts 22°
2026-05-05 22:56 36.63741 -78.30256 30971 ft 439 kts 22°
2026-05-05 22:57 36.66423 -78.28433 31046 ft 440 kts 22°
2026-05-05 22:57 36.70896 -78.25391 31050 ft 440 kts 22°
2026-05-05 22:58 36.76257 -78.21735 31047 ft 439 kts 22°
2026-05-05 22:58 36.81644 -78.18056 31044 ft 438 kts 22°
2026-05-05 22:59 36.86989 -78.14400 31029 ft 438 kts 22°
2026-05-05 22:59 36.92306 -78.10758 30995 ft 440 kts 22°
2026-05-05 23:00 37.00372 -78.05220 30986 ft 442 kts 22°
2026-05-05 23:00 37.05771 -78.01505 30982 ft 442 kts 22°
2026-05-05 23:01 37.11166 -77.97786 31003 ft 443 kts 22°
2026-05-05 23:01 37.16573 -77.94052 30979 ft 444 kts 22°
2026-05-05 23:02 37.21995 -77.90304 30984 ft 445 kts 22°
2026-05-05 23:02 37.27433 -77.86539 30983 ft 447 kts 22°
2026-05-05 23:03 37.32846 -77.82782 30993 ft 447 kts 23°
2026-05-05 23:03 37.38300 -77.78992 30989 ft 448 kts 23°
2026-05-05 23:04 37.43748 -77.75199 30875 ft 447 kts 23°
2026-05-05 23:04 37.46459 -77.73308 30604 ft 443 kts 23°
2026-05-05 23:04 37.49145 -77.71431 30372 ft 441 kts 23°
2026-05-05 23:05 37.51826 -77.69560 30130 ft 441 kts 23°
2026-05-05 23:05 37.54515 -77.67682 29904 ft 440 kts 23°
2026-05-05 23:05 37.57160 -77.65834 29627 ft 440 kts 23°
2026-05-05 23:05 37.59843 -77.63957 29350 ft 442 kts 23°
2026-05-05 23:06 37.62558 -77.62060 29093 ft 450 kts 23°
2026-05-05 23:06 37.65301 -77.60140 28823 ft 450 kts 24°
2026-05-05 23:06 37.68024 -77.58227 28538 ft 446 kts 24°
2026-05-05 23:06 37.70726 -77.56325 28268 ft 443 kts 24°
2026-05-05 23:07 37.73411 -77.54436 28008 ft 441 kts 24°
2026-05-05 23:07 37.76086 -77.52553 27615 ft 443 kts 24°
2026-05-05 23:07 37.78786 -77.50655 27089 ft 442 kts 24°
2026-05-05 23:07 37.81471 -77.48763 26543 ft 441 kts 25°
2026-05-05 23:08 37.84138 -77.46881 26128 ft 436 kts 25°
2026-05-05 23:08 37.86764 -77.45026 25864 ft 428 kts 25°
2026-05-05 23:08 37.89359 -77.43193 25616 ft 427 kts 25°
2026-05-05 23:08 37.91976 -77.41347 25383 ft 433 kts 25°
2026-05-05 23:09 37.94622 -77.39479 25044 ft 438 kts 26°
2026-05-05 23:09 37.97288 -77.37593 24520 ft 438 kts 26°
2026-05-05 23:09 37.99948 -77.35708 23999 ft 438 kts 26°
2026-05-05 23:09 38.02614 -77.33816 23437 ft 439 kts 27°
2026-05-05 23:10 38.05263 -77.31933 22815 ft 435 kts 27°
2026-05-05 23:10 38.07883 -77.30069 22247 ft 429 kts 27°
2026-05-05 23:10 38.10442 -77.28247 21714 ft 424 kts 27°
2026-05-05 23:10 38.13030 -77.26404 21183 ft 419 kts 27°
2026-05-05 23:11 38.15557 -77.24604 20665 ft 414 kts 27°
2026-05-05 23:11 38.18057 -77.22822 20142 ft 409 kts 27°
2026-05-05 23:11 38.20529 -77.21058 19656 ft 405 kts 27°
2026-05-05 23:11 38.22944 -77.19333 19160 ft 402 kts 27°
2026-05-05 23:12 38.25372 -77.17599 18662 ft 398 kts 27°
2026-05-05 23:12 38.27778 -77.15879 18144 ft 395 kts 27°
2026-05-05 23:12 38.30169 -77.14168 17582 ft 392 kts 27°
2026-05-05 23:12 38.32533 -77.12474 17106 ft 387 kts 27°
2026-05-05 23:13 38.34858 -77.10808 16659 ft 381 kts 26°
2026-05-05 23:13 38.37150 -77.09137 16157 ft 379 kts 29°
2026-05-05 23:13 38.39350 -77.07284 15666 ft 378 kts 32°
2026-05-05 23:13 38.41488 -77.05345 15203 ft 375 kts 33°
2026-05-05 23:14 38.43600 -77.03405 14714 ft 372 kts 33°
2026-05-05 23:14 38.45704 -77.01489 14236 ft 370 kts 32°
2026-05-05 23:14 38.47707 -76.99449 13741 ft 370 kts 41°
2026-05-05 23:14 38.49493 -76.97080 13209 ft 369 kts 45°
2026-05-05 23:15 38.51213 -76.94663 12696 ft 367 kts 46°
2026-05-05 23:15 38.52915 -76.92250 12203 ft 364 kts 46°
2026-05-05 23:15 38.54613 -76.89859 11717 ft 362 kts 45°
2026-05-05 23:15 38.56305 -76.87500 11241 ft 359 kts 45°
2026-05-05 23:16 38.57994 -76.85161 10755 ft 357 kts 45°
2026-05-05 23:16 38.59657 -76.82868 10391 ft 352 kts 45°
2026-05-05 23:16 38.61311 -76.80588 10259 ft 340 kts 45°
2026-05-05 23:16 38.62894 -76.78409 10102 ft 329 kts 45°
2026-05-05 23:17 38.64407 -76.76325 9975 ft 317 kts 44°
2026-05-05 23:17 38.65909 -76.74259 9471 ft 318 kts 45°
2026-05-05 23:17 38.67400 -76.72208 9117 ft 313 kts 45°
2026-05-05 23:17 38.68876 -76.70174 8753 ft 311 kts 45°
2026-05-05 23:18 38.70347 -76.68146 8386 ft 309 kts 46°
2026-05-05 23:18 38.71810 -76.66128 8048 ft 308 kts 46°
2026-05-05 23:18 38.73260 -76.64126 7709 ft 306 kts 46°
2026-05-05 23:18 38.74707 -76.62127 7359 ft 305 kts 46°
2026-05-05 23:19 38.76144 -76.60140 7024 ft 303 kts 47°
2026-05-05 23:19 38.77651 -76.58271 6665 ft 301 kts 32°
2026-05-05 23:19 38.79549 -76.57240 6325 ft 294 kts
2026-05-05 23:19 38.81551 -76.56796 6009 ft 292 kts
2026-05-05 23:20 38.83539 -76.56268 5653 ft 292 kts
2026-05-05 23:20 38.85531 -76.55851 5326 ft 286 kts 356°
2026-05-05 23:20 38.87456 -76.55984 5259 ft 271 kts 350°
2026-05-05 23:20 38.89328 -76.55953 5147 ft 265 kts 356°
2026-05-05 23:21 38.91127 -76.56044 5035 ft 254 kts 349°
2026-05-05 23:21 38.92864 -76.56233 4767 ft 253 kts 348°
2026-05-05 23:21 38.94617 -76.56424 4517 ft 249 kts 349°
2026-05-05 23:21 38.96333 -76.56585 4211 ft 246 kts 350°
2026-05-05 23:22 38.98008 -76.56721 3889 ft 237 kts 350°
2026-05-05 23:22 38.99620 -76.56835 3631 ft 227 kts 350°
2026-05-05 23:22 39.01175 -76.56937 3367 ft 220 kts 349°
2026-05-05 23:22 39.02683 -76.57033 3098 ft 213 kts 349°
2026-05-05 23:23 39.04114 -76.57122 2826 ft 207 kts 349°
2026-05-05 23:23 39.05545 -76.57211 2603 ft 204 kts 349°
2026-05-05 23:23 39.06922 -76.57482 2345 ft 195 kts 324°
2026-05-05 23:23 39.08014 -76.58438 2144 ft 191 kts 315°
2026-05-05 23:24 39.09072 -76.59402 1901 ft 181 kts 315°
2026-05-05 23:24 39.10066 -76.60321 1655 ft 172 kts 314°
2026-05-05 23:24 39.11012 -76.61202 1476 ft 162 kts 314°
2026-05-05 23:24 39.11893 -76.62022 1226 ft 151 kts 314°
2026-05-05 23:25 39.12726 -76.62799 1038 ft 146 kts 314°
2026-05-05 23:25 39.13569 -76.63582 882 ft 152 kts 320°
2026-05-05 23:25 39.14410 -76.64382 649 ft 148 kts 321°
2026-05-05 23:25 39.15222 -76.65095 488 ft 138 kts 323°
2026-05-05 23:26 39.16031 -76.65867 338 ft 148 kts 316°
2026-05-05 23:26 39.16848 -76.66639 167 ft 138 kts 319°
2026-05-05 23:26 39.17482 -76.67220 161 ft 87 kts 325°
2026-05-05 23:26 39.17753 -76.67469 157 ft 25 kts 331°
2026-05-05 23:27 39.17859 -76.67414 154 ft 2 kts 54°